Find UAE-813

NORAD ID: 66994 Int'l Des: 2025-292 Owner: UAESA/UAEU Country: UAE operational
LEOCIRCULARRETROGRADESSO

Live Position

Loading 3D Globe...

About UAE-813

Description loading...

Upcoming Passes

Passes for default location (London). Set your location on the main map for personalized predictions.

Altitude History

Loading altitude history...

Two-Line Element Set

1 66994U 25292B 26107.17690791 .00002269 00000-0 15970-3 0 9994
2 66994 97.6340 183.5244 0014534 201.6601 158.4013 15.05987945 19268
Epoch: Apr 17, 2026 • Age: 15 hours

Current Status

Altitude 563.0 km
Velocity 7.59 km/s
Sub-Earth Point 76.77°N, 92.91°W
Launch Date Dec 10, 2025
Age 0.3 years
Type other

Technical Details

Classification Payload
Mass 260.00 kg
Dry Mass 260.00 kg
Total Mass 260.00 kg
Length 1.00 m
Diameter 1.00 m
Span 6.00 m
Shape Box+ pan
Manufacturer IMICAS/UAEU
Phase Status In Orbit
Owner/State UAESA/UAEU/UAE

Most Searched